OPS 4682 DEB, 18691

Orbit data source: Space-Track

OPS 4682 DEB, 18691 is space debris in LEO originally from a launch on Sat, 03 Apr 1965 UTC launched from the Air Force Western Test Range (AFWTR). Debris objects in space refer to the collection of defunct objects orbiting the Earth. Examples of debris include non-operational satellites, rocket bodies, and fragments generated from explosions, collisions, or faulty payload assembly.

Loading next visibility...
Identifier
18691, 1965-027AJ
Orbit
LEO
Country
Flag of USUS
Related business
Manufacturer
Unknown
Mission
Spacecraft
Bus & Motor
Unknown
Mass
Unknown
Launch date (UTC)
1965-04-03 (61 years ago)
Launch vehicle
Unknown
Launch site
Air Force Western Test Range (AFWTR)
Object type
Payload
Rocket body
Debris
Shape & HBR
Unknown shape, 0.1 m
Radar Cross Section
Small (<0.1 m²)

Expand to show TLE details & history
Last TLE update: 2 days ago

TLE from 2 days ago
0 OPS 4682 DEB
1 18691U 65027AJ  25292.44759909  .00000108  00000-0  34869-3 0  9994
2 18691  90.2297 351.7802 0024991  24.7119 351.1666 12.96643199793895
Epoch: 2025-10-19T10:44Z
TLE epoch observation values (Epoch: 2025-10-19T10:44:32.561Z)
Latitude
15.81314°
Longitude
162.41567°
Altitude
1,258.582 km
Speed
7.236 km/s
True Right ascension
23h 26m 51s
True Declination
15° 43' 45"
Sunlit
Object was in full shadow at epoch
Visualization orbit readout
Latitude
Unknown
Longitude
Unknown
Altitude
Unknown
Speed
Unknown
Apparent Right ascension
Unknown
Apparent Declination
Unknown
Sunlit
N/A
Visualization observer readout
Local Sidereal Time
03:21:30
Azimuth
Unknown
Elevation
Unknown
Doppler factor
Unknown
Orbital elements
Apogee altitude
1,291.519 km
Perigee altitude
1,253.28 km
Semi-major axis
7,650.536 km
Eccentricity
0.0025
Inclination
90.2297°
RAAN
351.7802°
Arg. of periapsis
24.7119°
True anomaly
351.12249°
Mean anomaly
351.1666°
Eccentric anomaly
351.14456°
Mean motion
3.24344 °/min
Orbital period
110.99 mins
BSTAR
0.00034869
Loading maneuver chart data...
Computing Atmospheric mass density...
Loading historical data...
Loading historical data...
Loading historical data...
Loading historical data...
Loading historical data...
Loading historical data...
Loading historical data...

Documentation

Showing up to 5 results
|